[[{"header":{"parameterUnit":"m.s-1","parameterCategory":1,"la1":30.2991,"la2":30.254,"lo1":-89.0895,"lo2":-89.0444,"dy":0.0017,"dx":0.0017,"nx":28,"ny":28,"refTime":"2024-04-10T21:00:00:Z","depth":0,"parameterNumber":2,"parameterNumberName":"U-component_of_WINDS"},"data":[0,0,0,0,0,0,0,0,0,0,0,0,0,0,0,0,0,0,0,0,0,0,0,0,0,0,0,0,0,0,0,0,0,0,0,0,0,0,0,0,0,0,0,0,0,0,0,0,0,0,0,0,0,0,0,0,0,0,1.0127,1.013,0,1.0468,1.0472,1.0476,1.0659,1.066,1.066,1.0661,1.1019,1.1028,1.1037,0,0,0,0,0,0,0,0,0,0,0,0,0,0.9637,0.9645,1.0126,1.013,1.0135,1.0467,1.0472,1.0477,1.0659,1.066,1.066,1.0661,1.1016,1.1026,1.1037,0,0,0,0,0,0,0,0,0,0,0,0,0,0.9901,0.9648,1.0125,1.0266,1.0282,1.0466,1.0472,1.0478,1.0659,1.066,1.066,1.0661,1.1012,1.1025,1.1039,1.1113,0,0,1.1081,1.1087,0,0,0,0,0,0,0,0,0.9886,0.9919,1.0241,1.0256,1.0275,1.0522,1.0431,1.0691,1.0659,1.0516,1.0661,1.0661,1.0853,1.088,1.0943,1.113,1.1145,1.1082,1.1091,1.1097,1.11,0,0,0,0,0,0,0,0.9867,0.9905,1.0262,1.0245,1.0266,1.0313,1.0351,1.0481,1.0678,1.0529,1.0543,1.058,1.0863,1.093,1.0953,1.115,1.1082,1.1094,1.1103,1.1108,1.1413,1.1413,0,0,0,0,0,0,0.9826,0.9889,1.0251,1.0272,1.0077,1.0321,1.0364,1.0442,1.0677,1.0713,1.0579,1.0588,1.0906,1.0937,1.0966,1.1068,1.1096,1.1109,1.1117,1.1413,1.1413,1.1413,0,0,0,0,0,0,0.9814,0.9856,1.0237,1.0084,1.0136,1.0329,1.0415,1.0448,1.0515,1.0715,1.0752,1.0611,1.0907,1.0947,1.1074,1.1083,1.1116,1.1128,1.1413,1.1413,1.1413,1.127,0,0,0,0,0,0,0.98,0.9851,0.988,1.0084,1.0144,1.0337,1.0416,1.0455,1.0538,1.0551,1.0755,1.0789,1.0911,1.1052,1.1088,1.1102,1.1139,1.1414,1.1413,1.1413,1.1275,1.1265,1.1256,0,0,0,0,0,0.9782,0.9829,0.9881,0.9923,1.0184,1.0337,1.0372,1.0509,1.0537,1.0569,1.0697,1.0782,1.1075,1.1064,1.1105,1.1124,1.1414,1.1413,1.1413,1.1279,1.1267,1.1257,0,0,0,0,0,0,0.9625,0.9858,0.9918,1.0032,1.0163,1.0368,1.0412,1.0492,1.062,1.0628,1.0795,1.0839,1.095,1.1051,1.1033,1.1207,1.1254,1.1261,1.1138,1.1128,1.1119,1.1093,1.115,0,0,0,0,0,0.9602,0.9705,0.9905,0.9986,1.0048,1.0217,1.029,1.0383,1.0527,1.0584,1.0722,1.086,1.0983,1.1061,1.1186,1.129,1.1337,1.1323,1.1313,1.1305,1.131,1.1372,1.1368,1.1412,1.1412,1.1412,0,0,0.956,0.97,0.9755,0.9958,1.007,1.0174,1.0264,1.0371,1.045,1.0602,1.0729,1.0834,1.0999,1.1114,1.1172,1.1201,1.1308,1.1304,1.1296,1.1307,1.1371,1.1367,1.1363,1.1411,1.1412,1.1412,0,0,0.9534,0.965,0.973,0.9839,1.0007,1.0119,1.0137,1.033,1.0404,1.0534,1.0649,1.0747,1.0956,1.1068,1.1152,1.1165,1.1249,1.1201,1.1153,1.1211,1.1208,1.1206,1.121,1.121,1.1205,1.1205,1.1205,0,0.9461,0.962,0.9761,0.9861,0.9946,1.0084,1.0166,1.0267,1.0467,1.0524,1.0552,1.0815,1.0937,1.1079,1.1081,1.1145,1.1173,1.118,1.1196,1.1196,1.1196,1.1202,1.1203,1.1198,1.1199,1.12,1.12,0,0.9521,0.9629,0.9674,0.986,0.995,1.0041,1.0196,1.0271,1.0356,1.0465,1.0595,1.0744,1.09,1.0941,1.1027,1.1096,1.1108,1.1164,1.1215,1.1182,1.1191,1.1194,1.1188,1.1191,1.1193,1.1194,0,0,0.941,0.9669,0.9683,0.9768,0.9961,1.0049,1.0145,1.0294,1.0355,1.0488,1.0574,1.0745,1.0797,1.0892,1.0992,1.1042,1.1042,1.1093,1.1099,1.1078,1.1127,1.1083,1.1083,1.1097,1.1098,1.1099,1.1113,0,0.9412,0.9588,0.9716,0.9844,0.9946,1.0076,1.016,1.0288,1.0392,1.0495,1.0611,1.0729,1.0789,1.0847,1.0903,1.1029,1.1054,1.103,1.1181,1.1184,1.1135,1.1088,1.1044,1.1049,1.1117,1.1118,1.1118,0,0.9439,0.9563,0.9699,0.9879,0.9927,0.9999,1.0145,1.0242,1.039,1.0462,1.0565,1.0666,1.0775,1.0813,1.0966,1.0946,1.1015,1.1086,1.109,1.111,1.1149,1.1107,1.1055,1.1055,1.1125,1.1124,1.1124,0,0.9343,0.9545,0.9652,0.9721,0.9934,0.9981,1.0072,1.0221,1.0301,1.0429,1.0484,1.0623,1.07,1.0807,1.0944,1.0959,1.1082,1.1132,1.1146,1.1142,1.1168,1.1164,1.1125,1.121,1.121,1.121,1.121,0,0.9333,0.9411,0.9611,0.9677,0.9769,0.9915,1.0003,1.0106,1.0235,1.0325,1.0447,1.0529,1.0704,1.0807,1.0915,1.1024,1.1059,1.1121,1.1149,1.111,1.1102,1.1159,1.1162,1.121,1.121,1.121,1.121,0,0.9242,0.9379,0.9505,0.9694,0.9743,0.9802,0.9965,1.0035,1.0143,1.0255,1.0289,1.0461,1.0589,1.0734,1.0912,1.0984,1.1086,1.1127,1.1034,1.1051,1.1056,1.1053,1.1053,1.106,1.1138,1.1137,1.1136,0,0.9227,0.929,0.9484,0.955,0.9637,0.9744,0.9825,0.9972,1.0052,1.0223,1.0272,1.0408,1.0524,1.0723,1.0865,1.1001,1.1046,1.1036,1.1068,1.1026,1.1046,1.1041,1.1048,1.1027,1.1026,1.1025,1.1024,0,0.9185,0.9248,0.936,0.9494,0.9587,0.97,0.982,0.9868,1.0038,1.0123,1.0252,1.0342,1.052,1.0654,1.0807,1.0904,1.0992,1.1012,1.1022,1.0984,1.0928,1.0958,1.1011,1.1012,1.1013,1.1014,1.1015,1.1015,0.9132,0.9193,0.9338,0.9457,0.9561,0.9668,0.9742,0.9858,0.9968,1.0122,1.0202,1.033,1.0476,1.0689,1.0783,1.0887,1.0917,1.0932,1.0936,1.0937,1.0926,1.0909,1.0915,1.0916,1.0916,1.0917,1.0917,0,0.9096,0.9195,0.9303,0.9463,0.9556,0.9627,0.9762,0.9836,0.9946,1.0073,1.0183,1.0332,1.0461,1.0612,1.0751,1.0806,1.085,1.0838,1.0836,1.0856,1.0892,1.0868,1.0799,1.0799,1.0799,1.0799,1.0799,1.0799,0.9088,0.9194,0.9274,0.9433,0.9533,0.9656,0.9727,0.9827,0.9928,1.0087,1.0193,1.0289,1.0426,1.0576,1.0698,1.0739,1.0785,1.0761,1.0814,1.0844,1.0854,1.0864,1.0843,1.0769,1.0769,1.0771,1.077,1.077]},{"header":{"parameterUnit":"m.s-1","parameterCategory":1,"la1":30.2991,"la2":30.254,"lo1":-89.0895,"lo2":-89.0444,"dy":0.0017,"dx":0.0017,"nx":28,"ny":28,"refTime":"2024-04-10T21:00:00:Z","depth":0,"parameterNumber":3,"parameterNumberName":"V-component_of_WINDS"},"data":[0,0,0,0,0,0,0,0,0,0,0,0,0,0,0,0,0,0,0,0,0,0,0,0,0,0,0,0,0,0,0,0,0,0,0,0,0,0,0,0,0,0,0,0,0,0,0,0,0,0,0,0,0,0,0,0,0,0,-2.5318,-2.5315,0,-2.5,-2.4997,-2.4993,-2.4877,-2.4878,-2.4879,-2.488,-2.4542,-2.4532,-2.4522,0,0,0,0,0,0,0,0,0,0,0,0,0,-2.5811,-2.5802,-2.5318,-2.5314,-2.531,-2.5001,-2.4996,-2.4992,-2.4877,-2.4878,-2.488,-2.4881,-2.4545,-2.4533,-2.4521,0,0,0,0,0,0,0,0,0,0,0,0,0,-2.5555,-2.58,-2.5319,-2.5216,-2.5204,-2.5002,-2.4996,-2.4991,-2.4877,-2.4878,-2.488,-2.4882,-2.4549,-2.4534,-2.4519,-2.4393,0,0,-2.4473,-2.4467,0,0,0,0,0,0,0,0,-2.557,-2.5537,-2.5235,-2.5223,-2.5208,-2.498,-2.5046,-2.479,-2.4876,-2.5,-2.488,-2.4882,-2.4685,-2.4659,-2.4595,-2.4377,-2.4362,-2.4472,-2.4463,-2.4456,-2.4452,0,0,0,0,0,0,0,-2.5588,-2.555,-2.5192,-2.5231,-2.5214,-2.5181,-2.5146,-2.4997,-2.4837,-2.499,-2.4981,-2.4945,-2.4678,-2.461,-2.4587,-2.4357,-2.4472,-2.4459,-2.445,-2.4444,-2.4014,-2.4012,0,0,0,0,0,0,-2.5624,-2.5566,-2.5202,-2.5182,-2.5397,-2.5171,-2.5132,-2.5052,-2.4838,-2.4808,-2.4944,-2.4941,-2.4635,-2.4604,-2.4574,-2.4408,-2.4456,-2.4442,-2.4433,-2.4016,-2.4013,-2.4011,0,0,0,0,0,0,-2.5636,-2.5593,-2.5215,-2.5371,-2.5321,-2.516,-2.5071,-2.5044,-2.4976,-2.4804,-2.4774,-2.4905,-2.4635,-2.4595,-2.4438,-2.4395,-2.4435,-2.4422,-2.4019,-2.4015,-2.4012,-2.4079,0,0,0,0,0,0,-2.565,-2.5598,-2.5552,-2.5371,-2.5313,-2.5089,-2.5068,-2.5037,-2.4952,-2.4945,-2.4759,-2.473,-2.4634,-2.4462,-2.4424,-2.4375,-2.441,-2.4022,-2.4017,-2.4013,-2.408,-2.4078,-2.4077,0,0,0,0,0,-2.5668,-2.5581,-2.555,-2.5507,-2.5252,-2.5087,-2.5053,-2.4948,-2.495,-2.4899,-2.4788,-2.4736,-2.4407,-2.4447,-2.4403,-2.4349,-2.4024,-2.4019,-2.4014,-2.408,-2.4078,-2.4077,0,0,0,0,0,0,-2.5755,-2.5555,-2.5519,-2.5372,-2.5248,-2.5068,-2.5001,-2.4949,-2.4819,-2.4817,-2.4688,-2.4647,-2.4499,-2.4409,-2.4456,-2.4213,-2.4212,-2.4198,-2.4278,-2.4274,-2.4273,-2.4296,-2.4397,0,0,0,0,0,-2.5759,-2.5646,-2.5475,-2.5361,-2.5301,-2.5163,-2.5086,-2.5017,-2.4881,-2.4826,-2.4704,-2.457,-2.4436,-2.4351,-2.4219,-2.4067,-2.4022,-2.4008,-2.4007,-2.4006,-2.3994,-2.3903,-2.3894,-2.3993,-2.3993,-2.3993,0,0,-2.5761,-2.5638,-2.5574,-2.5375,-2.5271,-2.5152,-2.5119,-2.4994,-2.4903,-2.4806,-2.4651,-2.4556,-2.4398,-2.4243,-2.4168,-2.4163,-2.3957,-2.4,-2.4001,-2.3988,-2.3897,-2.3887,-2.3879,-2.399,-2.399,-2.3991,0,0,-2.5705,-2.5603,-2.5496,-2.5393,-2.5237,-2.5145,-2.512,-2.4947,-2.4882,-2.4725,-2.4649,-2.4537,-2.431,-2.42,-2.4114,-2.4017,-2.3962,-2.3977,-2.3967,-2.388,-2.3872,-2.3865,-2.3826,-2.3814,-2.3966,-2.3966,-2.3967,0,-2.5727,-2.555,-2.5446,-2.5326,-2.5238,-2.515,-2.5037,-2.4941,-2.4748,-2.4687,-2.4685,-2.4398,-2.4286,-2.4102,-2.4078,-2.4013,-2.3976,-2.3996,-2.3883,-2.3874,-2.3865,-2.3826,-2.3813,-2.3969,-2.3969,-2.3968,-2.3968,0,-2.5582,-2.546,-2.5391,-2.5211,-2.5117,-2.5001,-2.4875,-2.479,-2.4729,-2.4636,-2.4475,-2.4338,-2.4175,-2.4127,-2.4064,-2.3932,-2.3933,-2.3909,-2.3904,-2.386,-2.3821,-2.3806,-2.3973,-2.3972,-2.3971,-2.397,0,0,-2.5569,-2.5336,-2.5312,-2.5228,-2.505,-2.495,-2.4829,-2.4674,-2.4602,-2.4472,-2.4363,-2.4174,-2.415,-2.4053,-2.3977,-2.3901,-2.3828,-2.3885,-2.3879,-2.3875,-2.3669,-2.3686,-2.3671,-2.3792,-2.3789,-2.3787,-2.3681,0,-2.5487,-2.5271,-2.5174,-2.4998,-2.4881,-2.4796,-2.4689,-2.4565,-2.4475,-2.4358,-2.4257,-2.4123,-2.4104,-2.4045,-2.3966,-2.3854,-2.3784,-2.386,-2.3684,-2.3679,-2.3723,-2.3651,-2.3668,-2.3575,-2.3665,-2.3663,-2.3661,0,-2.5361,-2.5235,-2.505,-2.4885,-2.4832,-2.4738,-2.4587,-2.4479,-2.4335,-2.4274,-2.4167,-2.4094,-2.3958,-2.3966,-2.3773,-2.3828,-2.375,-2.3683,-2.3677,-2.3653,-2.3665,-2.3621,-2.3543,-2.3528,-2.3637,-2.3639,-2.364,0,-2.5366,-2.515,-2.501,-2.4942,-2.4746,-2.4682,-2.4596,-2.4455,-2.4367,-2.4233,-2.4174,-2.4026,-2.3943,-2.3827,-2.3714,-2.3732,-2.3531,-2.3531,-2.3472,-2.3475,-2.343,-2.3433,-2.3335,-2.3388,-2.3388,-2.3388,-2.3388,0,-2.5281,-2.517,-2.501,-2.4923,-2.4795,-2.4683,-2.4557,-2.4464,-2.4339,-2.4229,-2.4146,-2.4044,-2.3903,-2.3782,-2.3693,-2.3544,-2.3508,-2.3452,-2.3428,-2.3457,-2.3463,-2.3401,-2.3402,-2.3384,-2.3385,-2.3386,-2.3386,0,-2.5263,-2.5152,-2.4993,-2.4823,-2.4777,-2.4689,-2.454,-2.445,-2.4357,-2.4219,-2.418,-2.4032,-2.3884,-2.3762,-2.3568,-2.3508,-2.3352,-2.3327,-2.3401,-2.3388,-2.3335,-2.334,-2.3189,-2.3161,-2.3238,-2.3237,-2.3237,0,-2.5214,-2.5127,-2.4948,-2.4871,-2.4788,-2.4665,-2.4576,-2.4462,-2.4371,-2.4201,-2.413,-2.3979,-2.385,-2.3618,-2.349,-2.334,-2.3308,-2.3266,-2.3284,-2.3315,-2.3302,-2.3307,-2.3295,-2.3263,-2.3263,-2.3262,-2.3262,0,-2.5138,-2.5088,-2.4966,-2.4824,-2.4721,-2.4602,-2.4481,-2.4421,-2.4283,-2.4186,-2.4037,-2.3938,-2.3741,-2.3589,-2.3426,-2.3332,-2.3271,-2.3258,-2.3236,-2.3261,-2.3307,-2.3277,-2.3393,-2.3261,-2.3261,-2.3261,-2.3261,-2.3261,-2.5099,-2.5017,-2.4879,-2.4744,-2.4642,-2.4531,-2.4438,-2.4335,-2.421,-2.4044,-2.3983,-2.3829,-2.3684,-2.3459,-2.3365,-2.324,-2.3232,-2.3201,-2.3192,-2.3185,-2.3187,-2.3331,-2.321,-2.321,-2.321,-2.3209,-2.3209,0,-2.5015,-2.4923,-2.4801,-2.4636,-2.4529,-2.4489,-2.4352,-2.4264,-2.4131,-2.4004,-2.3881,-2.3707,-2.356,-2.3421,-2.3265,-2.3191,-2.3159,-2.3154,-2.3155,-2.3134,-2.3205,-2.3238,-2.3182,-2.3182,-2.3182,-2.3182,-2.3182,-2.3182,-2.4959,-2.4817,-2.475,-2.4555,-2.4461,-2.4313,-2.4238,-2.4133,-2.4031,-2.3843,-2.3722,-2.3634,-2.35,-2.3334,-2.3195,-2.3158,-2.3102,-2.3103,-2.3057,-2.3125,-2.3129,-2.3133,-2.3163,-2.3093,-2.3093,-2.2996,-2.2995,-2.2995]}]]